Simultaneous Nadir Overpasses (SNOs) Predictions

Prediction of SNOs near US between AQUA and NPP Satellite Orbit:

Table of predicted SNOs near US for the next 10.0 days since TLE Epoch: 8/30/2014
Index Date (AQUA) Time (AQUA) AQUA Lat,Lon Date (NPP) Time (NPP) NPP Lat,Lon Distance(km) Time Diff (sec)
1 08/30/2014 20:14:34 49.95,-109.56 08/30/2014 20:06:35 50.05,-108.94 46.06 479
2 09/02/2014 17:27:28 49.08, -67.49 09/02/2014 17:27:43 48.84, -68.76 96.52 15
3 09/02/2014 19:03:50 40.08, -88.99 09/02/2014 19:06:36 39.75, -90.70 150.53 166
4 09/02/2014 20:40:13 31.08,-111.11 09/02/2014 20:45:29 30.61,-113.30 215.04 316
5 09/05/2014 06:56:26 20.02, -77.21 09/05/2014 06:52:49 19.91, -76.72 53.31 217
6 09/05/2014 08:32:55 28.70, -99.83 09/05/2014 08:31:49 28.70, -99.83 0.70 66
7 09/05/2014 10:05:53 49.92,-117.76 09/05/2014 10:07:13 49.95,-117.98 16.17 80
8 09/07/2014 21:04:03 49.95,-121.94 09/07/2014 20:57:33 49.99,-121.62 23.50 390




NCC Satellite Simultaneous Nadir Overpasses (SNOs) Prediction Service
